This is the latest recevied weather packets stored in our database for station/object KD7MPG-3. If no packets are shown the sender has not sent any weather packets the latest 10 day(s).
| Time | Temp. | Humidity | Pressure | Rain* | Wind** | Luminosity | Snow |
|---|---|---|---|---|---|---|---|
| 1777577770 | 20.56° C | 61% | 1026 hPa | 0 mm | - | - | - |
| 1777577470 | 20.56° C | 61% | 1026.1 hPa | 0 mm | - | - | - |
| 1777577168 | 20.56° C | 62% | 1026.1 hPa | 0 mm | - | - | - |
| 1777576868 | 20.56° C | 61% | 1026.3 hPa | 0 mm | - | - | - |
| 1777576569 | 20° C | 62% | 1026.2 hPa | 0 mm | - | - | - |
| 1777576266 | 20° C | 63% | 1026.4 hPa | 0 mm | - | - | - |
| 1777575964 | 19.44° C | 66% | 1026.6 hPa | 0 mm | - | - | - |
| 1777575665 | 19.44° C | 63% | 1026.6 hPa | 0 mm | - | - | - |
| 1777575360 | 19.44° C | 64% | 1026.7 hPa | 0 mm | - | - | - |
| 1777575060 | 18.89° C | 64% | 1026.7 hPa | 0 mm | - | - | - |
| 1777574758 | 18.89° C | 65% | 1026.8 hPa | 0 mm | - | - | - |
| 1777574458 | 18.89° C | 66% | 1026.7 hPa | 0 mm | - | - | - |
| 1777574158 | 18.89° C | 66% | 1026.8 hPa | 0 mm | - | - | - |
| 1777573859 | 18.89° C | 68% | 1026.8 hPa | 0 mm | - | - | - |
| 1777573553 | 18.33° C | 68% | 1026.9 hPa | 0 mm | - | - | - |
| 1777573252 | 18.33° C | 66% | 1026.9 hPa | 0 mm | - | - | - |
| 1777572953 | 18.33° C | 66% | 1026.9 hPa | 0 mm | - | - | - |
| 1777572652 | 18.33° C | 66% | 1026.9 hPa | 0 mm | - | - | - |
| 1777572352 | 18.33° C | 66% | 1027 hPa | 0 mm | - | - | - |
| 1777572053 | 17.78° C | 67% | 1027 hPa | 0 mm | - | - | - |
| 1777571746 | 17.78° C | 69% | 1027 hPa | 0 mm | - | - | - |
| 1777571446 | 17.78° C | 67% | 1027 hPa | 0 mm | - | - | - |
| 1777571146 | 18.33° C | 67% | 1027.1 hPa | 0 mm | - | - | - |
| 1777570846 | 18.33° C | 67% | 1027 hPa | 0 mm | - | - | - |
| 1777570545 | 18.33° C | 68% | 1027.1 hPa | 0 mm | - | - | - |
* Rain latest hour (hover to see other rain measurements)
** Current wind speed in m/s (hover to see current wind gust speed)